COSMOS 1275 DEB

Satellite information

Favourite Embed

Satellite Type and Status

DEBRISIN ORBIT

Key statistics

Satellite COSMOS 1275 DEB at a glance.

Uptime

16044

Days in orbit

Revolutions

≈ 14.1

Per day

Orbit

LEO

Low Earth Orbit

Inclination

82.9

Latest

Satellite identification and parameters

Extended collection of information and parameters for COSMOS 1275 DEB.

Object identification

Identified? True

Debris? True

Object name: COSMOS 1275 DEB

International designator: 1981-053SL

Object number (NORAD): 42172

Object ID (CCSDS): 42172

Country: COMMONWEALTH OF INDEPENDENT STATES (CIS)

Current information (Y/N): Y

RCS size: SMALL

Orbital parameters

Period: 102.22 minutes

Inclination: 82.9457 deg

SMA: 7241.862 km

Apoapsis: 914.729 km

Periapsis: 812.724 km

RAAN: 271.793 deg

Eccentricy: 0.0070427

Argument of periapsis: 156.793 deg

Mean anomaly: 203.6452 deg

Mean motion: 14.0872888 rev/day

Mean motion (dot): 0.00004686 rev/day2

B* drag term: 0.0026497 1/REarth

Two-line elements (TLE)

Creation date: April 29, 2025, 4:35 a.m.

Reference frame: TEME

Reference center: EARTH

Epoch: April 28, 2025, 4:13 a.m. UTC

TLE line 0: 0 COSMOS 1275 DEB

TLE line 1: 1 42172U 81053SL 25118.17634616 .00004686 00000-0 26497-2 0 9998

TLE line 2: 2 42172 82.9457 271.7930 0070427 156.7930 203.6452 14.08728880584884

Live tracking on map

Real-time ground track for satellite COSMOS 1275 DEB.

In-orbit conjunctions

A list of the most updated potential collisions computed for object COSMOS 1275 DEB.

Target Orbit TCA Probability of collision Miss distance Type
COSMOS 1266 LEO 2025-02-05 03:57:43 0.0001263938 838.0 (m) PAYLOAD

Associated space launch

Navigation satellite providing location information for the Tsiklon-B navigation system

COSMOS 1275 DEB was lifted into orbit during the mission ‘Kosmos-3M | Parus 27’, on board a Kosmos-3M space rocket.

The launch took place on June 4, 1981, 3:41 p.m. from 132/2.

For more information about the launch, click the button.

Launch to space Kosmos-3M | Parus 27
Kosmos-3M | Parus 27

Agency: N/A

Status: Launch Successful

Launch date: June 4, 1981, 3:41 p.m. UTC

Rocket: Kosmos-3M

Launch pad: 132/2

Location: Plesetsk Cosmodrome, Russian Federation

...

Latest news about this satellite

There are no fresh news available about this satellite. Check back as we update our databases every day.


Newsletter sign-up

Weekly statistics, charts and insights to help you stay on top of the space industry.